WetterOnline ( http://www.wetteronline.de )

Wetter aktuell Friedberg

Aktuelles Wetter: Hoherodskopf/Vogelsberg (743m)

6-stündlich | Neueste Meldungen
Ortszeit Temperatur Wetter
Do, 16.08. 14:00 22.6° C fast wolkenlos
Do, 16.08. 8:00 16.0° C fast wolkenlos
Do, 16.08. 2:00 15.7° C fast wolkenlos
Mi, 15.08. 20:00 17.6° C fast wolkenlos
Mi, 15.08. 14:00 16.4° C bewölkt
Mi, 15.08. 8:00 12.9° C bedeckt
Mi, 15.08. 2:00 14.0° C Nebel
Di, 14.08. 20:00 16.9° C wolkig
Ortszeit Temperatur Wetter
Do, 16.08. 15:10 23.2° C leicht bewölkt
Do, 16.08. 15:00 22.7° C fast wolkenlos
Do, 16.08. 14:50 22.7° C fast wolkenlos
Do, 16.08. 14:40 23.0° C wolkenlos
Do, 16.08. 14:30 22.7° C wolkenlos
Do, 16.08. 14:20 22.7° C wolkenlos
Do, 16.08. 14:00 22.6° C fast wolkenlos
Do, 16.08. 13:30 23.1° C wolkenlos
Do, 16.08. 13:00 20.9° C wolkenlos
Do, 16.08. 12:30 21.2° C leicht bewölkt
Do, 16.08. 12:00 20.8° C wolkenlos
Ortszeit Relative Feuchte Sichtweite
Do, 16.08. 14:00 52% 30 km
Do, 16.08. 8:00 75% 22 km
Do, 16.08. 2:00 68% 30 km
Mi, 15.08. 20:00 64% 35 km
Mi, 15.08. 14:00 71% 19 km
Mi, 15.08. 8:00 100% 3.3 km
Mi, 15.08. 2:00 100% 100 m
Di, 14.08. 20:00 72% 35 km
Ortszeit Relative Feuchte Sichtweite
Do, 16.08. 15:10 48% -
Do, 16.08. 15:00 50% 30 km
Do, 16.08. 14:50 50% -
Do, 16.08. 14:40 47% -
Do, 16.08. 14:30 50% 30 km
Do, 16.08. 14:20 50% -
Do, 16.08. 14:00 52% 30 km
Do, 16.08. 13:30 52% 30 km
Do, 16.08. 13:00 55% 29 km
Do, 16.08. 12:30 56% 28 km
Do, 16.08. 12:00 58% 26 km
Ortszeit Niederschlagsmenge Niederschlagsart
Do, 16.08. 14:00 0.0 l/m2 in 6 Std. -
Do, 16.08. 8:00 0.0 l/m2 in 12 Std. -
Do, 16.08. 2:00 0.0 l/m2 in 6 Std. -
Mi, 15.08. 20:00 0.0 l/m2 in 12 Std. -
Mi, 15.08. 14:00 0.0 l/m2 in 6 Std. -
Mi, 15.08. 8:00 0.0 l/m2 in 12 Std. -
Mi, 15.08. 2:00 0.0 l/m2 in 6 Std. -
Di, 14.08. 20:00 0.5 l/m2 in 12 Std. Regen
Ortszeit Niederschlagsmenge Niederschlagsart
Do, 16.08. 15:10 keine Meldung -
Do, 16.08. 15:00 0.0 l/m2 in 1 Std. -
Do, 16.08. 14:50 keine Meldung -
Do, 16.08. 14:40 keine Meldung -
Do, 16.08. 14:30 0.0 l/m2 in 1 Std. -
Do, 16.08. 14:20 keine Meldung -
Do, 16.08. 14:00 0.0 l/m2 in 1 Std. -
Do, 16.08. 13:30 0.0 l/m2 in 1 Std. -
Do, 16.08. 13:00 0.0 l/m2 in 1 Std. -
Do, 16.08. 12:30 0.0 l/m2 in 1 Std. -
Do, 16.08. 12:00 0.0 l/m2 in 1 Std. -
Ortszeit Stärke Spitze Richtung
km/h Bft. km/h Grad Sektor
Do, 16.08. 14:00 13 3 33 210° SW
Do, 16.08. 8:00 11 2 17 150° SO
Do, 16.08. 2:00 7 2 11 110° O
Mi, 15.08. 20:00 6 1 22 260° W
Mi, 15.08. 14:00 11 2 22 210° SW
Mi, 15.08. 8:00 11 2 25 290° W
Mi, 15.08. 2:00 11 2 25 290° W
Di, 14.08. 20:00 14 3 36 290° W
Ortszeit Stärke Spitze Richtung
km/h Bft. km/h Grad Sektor
Do, 16.08. 15:10 15 3 - 210° SW
Do, 16.08. 15:00 14 3 29 190° S
Do, 16.08. 14:50 14 3 - 190° S
Do, 16.08. 14:40 14 3 - 210° SW
Do, 16.08. 14:30 15 3 30 180° S
Do, 16.08. 14:20 15 3 - 180° S
Do, 16.08. 14:00 13 3 33 210° SW
Do, 16.08. 13:30 14 3 32 210° SW
Do, 16.08. 13:00 14 3 32 170° S
Do, 16.08. 12:30 14 3 25 200° S
Do, 16.08. 12:00 18 3 32 170° S
Ortszeit Untergrenze Bedeckung Gattung
total tief tief mittel hoch
Do, 16.08. 14:00 9000 m 2/8 0/8 - - -
Do, 16.08. 8:00 1500 m 1/8 1/8 - - -
Do, 16.08. 2:00 2400 m 1/8 1/8 - - -
Mi, 15.08. 20:00 1500 m 1/8 1/8 - - -
Mi, 15.08. 14:00 720 m 7/8 7/8 - - -
Mi, 15.08. 8:00 <30 m 8/8 8/8 - - -
Mi, 15.08. 2:00 <30 m 8/8 8/8 - - -
Di, 14.08. 20:00 1140 m 6/8 6/8 - - -
Ortszeit Bedeckungsgrad in Achtel und Wolkenuntergrenze
Do, 16.08. 15:10 3(10500m)
Do, 16.08. 15:00 2(10500m)
Do, 16.08. 14:50 2(10500m)
Do, 16.08. 14:40 keine Wolken
Do, 16.08. 14:30 keine Wolken
Do, 16.08. 14:20 keine Wolken
Do, 16.08. 14:00 2(9000m)
Do, 16.08. 13:30 1(9000m)
Do, 16.08. 13:00 keine Wolken
Do, 16.08. 12:30 2(990m)
Do, 16.08. 12:00 9 9 9
Ortszeit Luftdruck NN (hPa) Tendenz (hPa in 3 Std.)
Do, 16.08. 14:00 1015 - 0,8
Do, 16.08. 8:00 1018 - 0,4
Do, 16.08. 2:00 1020 - 0,2
Mi, 15.08. 20:00 1019 - 0,3
Mi, 15.08. 14:00 1020 0,0
Mi, 15.08. 8:00 1020 + 0,6
Mi, 15.08. 2:00 1019 + 0,5
Di, 14.08. 20:00 1016 + 0,7
Ortszeit Luftdruck NN (hPa) Tendenz (hPa in 3 Std.)
Do, 16.08. 15:10 1014 keine Meldung
Do, 16.08. 15:00 1015 - 0,8
Do, 16.08. 14:50 1015 keine Meldung
Do, 16.08. 14:40 1015 keine Meldung
Do, 16.08. 14:30 1015 - 0,9
Do, 16.08. 14:20 1015 keine Meldung
Do, 16.08. 14:00 1015 - 0,8
Do, 16.08. 13:30 1015 - 0,9
Do, 16.08. 13:00 1016 - 0,6
Do, 16.08. 12:30 1016 - 0,6
Do, 16.08. 12:00 1016 - 0,6
Ortszeit Schneehöhe (cm)
Do, 16.08. 14:00 -
Do, 16.08. 8:00 -
Do, 16.08. 2:00 -
Mi, 15.08. 20:00 -
Mi, 15.08. 14:00 -
Mi, 15.08. 8:00 -
Mi, 15.08. 2:00 -
Di, 14.08. 20:00 -
Ortszeit Schneehöhe (cm)
Do, 16.08. 15:10 -
Do, 16.08. 15:00 -
Do, 16.08. 14:50 -
Do, 16.08. 14:40 -
Do, 16.08. 14:30 -
Do, 16.08. 14:20 -
Do, 16.08. 14:00 -
Do, 16.08. 13:30 -
Do, 16.08. 13:00 -
Do, 16.08. 12:30 -
Do, 16.08. 12:00 -
Link zu dieser Seite / Seite empfehlen

Das Wetter in ...